K1NOT-WX Weather Reports


time (UTC)temp
C
wind
direction
speed
KPH
gust
KPH
rain 1hr
cm
rain 24hr
cm
rain mn
cm
humidity
%
barometer
mb
20260507055713 11 225 0.0 0.0 0.00 0.00 0.00 90 1012.2
20260507054213 11 180 0.0 0.0 0.00 0.00 0.00 89 1011.8
20260507052713 12 203 1.6 3.2 0.00 0.00 0.00 88 1012.2
20260507051213 12 248 3.2 3.2 0.00 0.00 0.00 88 1012.2
20260507045713 12 225 4.8 8.0 0.00 0.00 0.00 86 1011.8
20260507044213 12 180 1.6 3.2 0.00 0.00 0.00 86 1011.8
20260507042713 12 203 3.2 3.2 0.00 0.00 0.00 85 1012.2
20260507041213 12 203 3.2 3.2 0.00 0.00 0.00 84 1011.8
20260507035713 12 225 3.2 3.2 0.00 0.00 0.00 83 1012.2
20260507034212 12 180 3.2 3.2 0.00 0.00 0.00 82 1011.8
20260507032712 12 203 1.6 3.2 0.00 0.00 0.00 82 1011.8
20260507031212 12 180 3.2 4.8 0.00 0.00 0.00 82 1011.8
20260507025712 13 225 3.2 3.2 0.00 0.00 0.00 82 1011.5
20260507024212 13 203 0.0 0.0 0.00 0.00 0.00 82 1011.2
20260507022712 13 180 3.2 3.2 0.00 0.00 0.00 82 1011.8
20260507021212 13 158 3.2 3.2 0.00 0.00 0.00 81 1011.2
20260507015712 13 158 1.6 3.2 0.00 0.00 0.00 82 1011.5
20260507014212 13 225 3.2 4.8 0.00 0.00 0.00 81 1011.2
20260507012712 13 203 1.6 3.2 0.00 0.00 0.00 81 1011.2
20260507011212 13 225 4.8 8.0 0.00 0.00 0.00 81 1011.5
20260507005712 13 203 1.6 3.2 0.00 0.00 0.00 81 1011.5
20260507004212 13 158 4.8 8.0 0.00 0.00 0.00 80 1011.8
20260507002712 13 203 6.4 8.0 0.00 0.00 0.00 80 1011.5
20260507001212 13 203 6.4 8.0 0.00 0.00 0.00 80 1011.5
20260506235712 13 225 1.6 3.2 0.00 0.00 0.00 81 1011.5
20260506234212 13 203 3.2 4.8 0.00 0.00 0.00 79 1011.8
20260506232712 13 225 3.2 4.8 0.00 0.00 0.00 79 1011.8
20260506231212 13 203 4.8 4.8 0.00 0.00 0.00 79 1011.8
20260506225712 13 180 4.8 4.8 0.00 0.00 0.00 77 1011.8
20260506224212 13 225 3.2 4.8 0.00 0.00 0.00 77 1011.8
20260506222712 13 225 3.2 3.2 0.00 0.00 0.00 76 1011.5
20260506221212 13 225 1.6 3.2 0.00 0.00 0.00 74 1011.8
20260506215712 13 180 1.6 3.2 0.00 0.00 0.00 73 1011.8
20260506214212 13 158 11.3 12.9 0.00 0.00 0.00 74 1011.8
20260506212712 13 248 4.8 6.4 0.00 0.00 0.00 74 1011.8
20260506211212 13 225 4.8 6.4 0.00 0.00 0.00 74 1012.2
20260506205712 13 203 8.0 9.7 0.00 0.00 0.00 73 1011.8
20260506204212 13 225 4.8 6.4 0.00 0.00 0.00 73 1011.8
20260506202712 13 248 3.2 3.2 0.00 0.00 0.00 75 1011.8
20260506201212 13 225 6.4 8.0 0.00 0.00 0.00 75 1011.8
20260506195712 13 225 4.8 4.8 0.00 0.00 0.00 77 1011.5
20260506194212 13 248 3.2 3.2 0.00 0.00 0.00 77 1011.5
20260506192712 13 225 6.4 8.0 0.00 0.00 0.00 78 1011.8
20260506191212 13 225 6.4 8.0 0.00 0.00 0.00 80 1011.5
20260506185712 12 225 6.4 9.7 0.00 0.00 0.00 81 1011.5
20260506184212 12 180 8.0 8.0 0.00 0.00 0.00 83 1011.5
20260506182712 12 180 6.4 8.0 0.00 0.00 0.00 86 1011.5
20260506181212 12 203 6.4 8.0 0.00 0.00 0.00 88 1011.8
20260506175712 12 225 3.2 4.8 0.00 0.00 0.00 88 1011.2
20260506174212 12 180 1.6 3.2 0.00 0.00 0.00 90 1011.2
20260506172712 11 203 1.6 3.2 0.00 0.00 0.00 91 1011.5
20260506171212 11 135 4.8 8.0 0.00 0.00 0.00 90 1011.2
20260506165712 11 158 6.4 8.0 0.00 0.00 0.00 89 1011.2
20260506164212 11 225 1.6 3.2 0.00 0.00 0.00 90 1011.2
20260506162712 11 203 6.4 8.0 0.00 0.00 0.00 91 1011.5
20260506161212 11 180 4.8 6.4 0.00 0.00 0.00 93 1010.8
20260506155712 11 180 6.4 8.0 0.00 0.00 0.00 95 1010.8
20260506152713 10 203 4.8 6.4 0.00 0.00 0.00 96 1010.8
20260506151213 11 225 0.0 0.0 0.00 0.00 0.00 95 1011.2
20260506145713 11 203 4.8 8.0 0.00 0.00 0.00 95 1010.5
20260506144213 11 248 0.0 0.0 0.00 0.00 0.00 95 1010.5
20260506142713 11 203 3.2 3.2 0.00 0.00 0.00 95 1010.8
20260506141213 10 180 6.4 8.0 0.00 0.00 0.00 94 1010.8
20260506135713 11 225 0.0 0.0 0.00 0.00 0.00 94 1010.5
20260506134213 11 225 0.0 1.6 0.00 0.00 0.00 94 1010.5
20260506132713 11 180 1.6 3.2 0.00 0.00 0.00 93 1010.2
20260506131213 11 158 1.6 3.2 0.00 0.00 0.00 93 1010.2
20260506125713 11 225 1.6 3.2 0.00 0.00 0.00 92 1010.2
20260506124213 11 203 0.0 0.0 0.00 0.00 0.00 92 1010.2
20260506122713 11 203 4.8 4.8 0.00 0.00 0.00 92 1009.8
20260506121213 11 180 3.2 3.2 0.00 0.00 0.00 92 1009.5
20260506115713 11 180 6.4 8.0 0.00 0.00 0.00 92 1009.5
20260506114213 11 248 1.6 3.2 0.00 0.00 0.00 92 1009.5
20260506112712 11 203 3.2 4.8 0.00 0.00 0.00 92 1009.5
20260506111212 11 180 4.8 6.4 0.00 0.00 0.00 92 1009.1
20260506105712 11 203 1.6 3.2 0.00 0.00 0.00 92 1009.1
20260506104212 11 225 4.8 8.0 0.00 0.00 0.00 92 1009.1
20260506102712 11 203 1.6 3.2 0.00 0.00 0.00 92 1009.1
20260506101212 11 180 8.0 11.3 0.00 0.00 0.00 92 1009.5
20260506095713 11 158 1.6 3.2 0.00 0.00 0.00 92 1009.1
20260506094212 11 225 1.6 3.2 0.00 0.00 0.00 92 1008.8
20260506092712 11 203 3.2 3.2 0.00 0.00 0.00 92 1008.5
20260506091212 11 180 0.0 1.6 0.00 0.00 0.00 91 1008.8
20260506085712 11 203 4.8 6.4 0.00 0.00 0.00 90 1008.5
20260506084212 11 203 1.6 3.2 0.00 0.00 0.00 90 1008.5
20260506082712 12 225 3.2 4.8 0.00 0.00 0.00 90 1008.5
20260506081212 12 203 3.2 3.2 0.00 0.00 0.00 90 1008.1
20260506072712 12 225 1.6 3.2 0.00 0.00 0.00 89 1007.8
20260506071212 12 180 1.6 3.2 0.00 0.00 0.00 88 1007.8
20260506061212 13 203 0.0 0.0 0.00 0.00 0.00 85 1007.4